Location: Brusselsch Zeekanaal
(50.8667°N, 4.3667°E)
Time: 23:01:44
(UTC+00:00)

Cosmos 1703 Rocket - Pass Details

Date: 08 November 2025
Orbit: 600 x 625 km, 82.5° (Epoch: 04 December)

Event Time Altitude Azimuth Distance (km) Brightness Sun altitude
Rises 05:11:33 0° 203° (SSW) 2,857 6.8 -15.1°
Reaches altitude 10° 05:13:48 10° 209° (SSW) 1,962 5.9 -14.8°
Maximum altitude 05:18:02 50° 285° (WNW) 788 3.7 -14.1°
Drops below altitude 10° 05:22:20 10° 1° (N) 1,993 6.1 -13.5°
Sets 05:24:38 0° 7° (N) 2,908 7.0 -13.1°
